This is the latest recevied weather packets stored in our database for station/object OZ1IEP-5. If no packets are shown the sender has not sent any weather packets the latest 10 day(s).
| Time | Temp. | Humidity | Pressure | Rain* | Wind** | Luminosity | Snow |
|---|---|---|---|---|---|---|---|
| 1777680605 | 9.44° C | 70% | 1020.4 hPa | 0 mm | - | 0 W/m² | - |
| 1777680008 | 10° C | 70% | 1020.5 hPa | 0 mm | - | 0 W/m² | - |
| 1777679406 | 10° C | 70% | 1020.5 hPa | 0 mm | - | 0 W/m² | - |
| 1777678806 | 9.44° C | 70% | 1020.6 hPa | 0 mm | - | 0 W/m² | - |
| 1777678208 | 9.44° C | 70% | 1020.7 hPa | 0 mm | - | 0 W/m² | - |
| 1777677606 | 10° C | 70% | 1020.8 hPa | 0 mm | - | 0 W/m² | - |
| 1777677005 | 10° C | 70% | 1020.9 hPa | 0 mm | - | 0 W/m² | - |
| 1777676408 | 10° C | 69% | 1021 hPa | 0 mm | - | 0 W/m² | - |
| 1777675807 | 10° C | 69% | 1021.2 hPa | 0 mm | - | 0 W/m² | - |
| 1777675206 | 10.56° C | 69% | 1021.1 hPa | 0 mm | - | 0 W/m² | - |
| 1777674609 | 10.56° C | 69% | 1021.2 hPa | 0 mm | - | 0 W/m² | - |
| 1777674007 | 10.56° C | 68% | 1021.3 hPa | 0 mm | - | 0 W/m² | - |
| 1777673406 | 10.56° C | 67% | 1021.2 hPa | 0 mm | - | 0 W/m² | - |
| 1777672809 | 10.56° C | 67% | 1021.2 hPa | 0 mm | - | 0 W/m² | - |
| 1777672206 | 11.11° C | 66% | 1021.4 hPa | 0 mm | - | 0 W/m² | - |
| 1777671606 | 11.11° C | 66% | 1021.4 hPa | 0 mm | - | 0 W/m² | - |
| 1777671009 | 11.11° C | 66% | 1021.5 hPa | 0 mm | - | 0 W/m² | - |
| 1777670406 | 11.11° C | 67% | 1021.5 hPa | 0 mm | - | 0 W/m² | - |
| 1777669806 | 11.11° C | 67% | 1021.6 hPa | 0 mm | - | 0 W/m² | - |
| 1777669208 | 11.67° C | 66% | 1021.9 hPa | 0 mm | - | 0 W/m² | - |
| 1777668606 | 11.67° C | 65% | 1022 hPa | 0 mm | - | 0 W/m² | - |
| 1777668006 | 12.22° C | 65% | 1022 hPa | 0 mm | - | 0 W/m² | - |
| 1777667408 | 12.22° C | 64% | 1022 hPa | 0 mm | - | 0 W/m² | - |
| 1777666806 | 12.78° C | 64% | 1022.2 hPa | 0 mm | - | 0 W/m² | - |
| 1777666206 | 12.78° C | 64% | 1022.2 hPa | 0 mm | - | 0 W/m² | - |
* Rain latest hour (hover to see other rain measurements)
** Current wind speed in m/s (hover to see current wind gust speed)